Location: Brookview Estates
(36.0476°N, 86.6931°W)
Time: 13:10:35
(UTC+00:00)

SJ 16-02 - Pass Details

Date: 30 March 2020
Orbit: 606 x 616 km, 75.0° (Epoch: 28 May)

Event Time Altitude Azimuth Distance (km) Brightness Sun altitude
Exits shadow 08:43:43 19° 16° (NNE) 1,472 3.7 -33.2°
Drops below altitude 10° 08:44:58 10° 16° (NNE) 1,967 4.5 -33.0°
Sets 08:47:12 0° 17° (NNE) 2,873 5.5 -32.6°
